www.pogodaiklimat.ru

Погода и климат >> Архив погоды >> Таиланд >> Сарабури


ПОГОДА в Сарабури

  • Прогноз погоды в Сарабури
  • Монитор погоды в Сарабури

АРХИВ ПОГОДЫ в Сарабури

Время (UTC), дата Ветер
(напр.,м/с)
 
Видим.   Явления Облачность Т
(С)
Тd
(С)
f
(%)
Тe
(С)
Тes
(С)
Комфортность P
(гПа)
Po
(гПа)
Тmin
(С)
Tmax
(С)
R
(мм)
R24
(мм)
S
(см)
00 14.06 штиль 0 9000 м дымка 4/1 600 м
[Cu hum Ac trans Ci fib]
+27.0 +24.8 88 +39 +40 очень
душно
1008.5 993.7 +26.0
03 14.06 штиль 0 10 км 6/3 600 м
[Cu hum Cs]
+32.0 +25.7 69 +47 +60 опасность
перегрева
1008.1 993.5
06 14.06 штиль 0 10 км {дождь} 8/5 300 м
[Cb cap Cs]
+33.3 +25.6 64 +48 +61 опасность
перегрева
1006.2 991.7 1
09 14.06 штиль 0 10 км 8/4 600 м
[Cu Sc Cs]
+35.0 +25.6 58 +50 +55 опасность
перегрева
1003.4 989.0
12 14.06 штиль 0 10 км 8/4 600 м
[Cu med, cong Cs]
+32.5 +25.8 68 +48 +48 опасность
перегрева
1005.1 990.5 +35.9
15 14.06 штиль 0 8000 м дымка 8/3 600 м
[Sc Cs]
+30.2 +25.7 77 +45 +45 опасность
перегрева
1008.3 993.6
18 14.06 штиль 0 8000 м дымка 9/4 600 м
[Sc Cs]
+27.5 +23.9 81 +38 +38 очень
душно
1007.6 992.8
21 14.06 штиль 0 8000 м дымка 8/3 600 м
[Sc Cs]
+27.0 +24.1 84 +37 +37 очень
душно
1006.2 991.4
00 15.06 штиль 0 9000 м дымка 8/3 600 м
[Cu Sc Ac trans Cs]
+27.5 +24.9 86 +39 +40 очень
душно
1007.8 992.9 +26.3
03 15.06 Ю 5 9000 м дымка 8/6 600 м
[Cu Sc Cs]
+31.3 +24.8 68 +44 +47 опасность
перегрева
1008.5 993.8
06 15.06 штиль 0 9000 м мгла 8/6 600 м
[Cu Sc Cs]
+34.0 +25.1 60 +48 +58 опасность
перегрева
1006.5 992.0
09 15.06 штиль 0 9000 м мгла 8/6 600 м
[Cu Sc Cs]
+34.0 +25.1 60 +48 +52 опасность
перегрева
1003.8 989.4
12 15.06 штиль 0 9000 м дымка 3/1 600 м
[Sc Ci fib]
+31.8 +24.5 65 +44 +44 опасность
перегрева
1004.7 990.2 +35.5
15 15.06 штиль 0 6000 м слаб. дождь 10/8 300 м
[Frnb Ac As]
+25.5 +25.1 98 +37 +37 очень
душно
1009.0 994.1 7
18 15.06 штиль 0 6000 м дымка {дождь} 10/8 600 м
[Cu Sc Cs]
+25.0 +24.3 96 +35 +35 очень
душно
1007.8 992.9 0.2
21 15.06 штиль 0 6000 м слаб. дождь 10/8 300 м
[Cu Sc Ac As]
+25.0 +24.3 96 +35 +35 очень
душно
1007.5 992.5 0.6
00 16.06 штиль 0 4000 м слаб. дождь 10/8 300 м
[Frnb As op]
+25.0 +24.3 96 +35 +35 очень
душно
1008.1 993.2 +24.5 18
03 16.06 штиль 0 8000 м слаб. дождь 10/5 50 м
[Cu med, cong As op Cs]
+27.7 +25.6 88 +41 +46 опасность
перегрева
1008.5 993.7 2
06 16.06 штиль 0 10 км {дождь} 9/1 600 м
[Cu med, cong Ac As Cs]
+31.8 +25.9 71 +47 +61 опасность
перегрева
1006.4 991.8 2
09 16.06 штиль 0 10 км 10/6 300 м
[Cu Sc Ac As]
+31.0 +26.8 78 +48 +49 опасность
перегрева
1005.0 990.4
12 16.06 штиль 0 10 км 10/8 300 м
[Cu Sc Ac As]
+27.0 +24.4 86 +38 +38 очень
душно
1005.9 991.1 +32.1
15 16.06 штиль 0 10 км в посл. час дождь 10/6 300 м
[Cu Sc Ac As Cs]
+25.5 +24.0 91 +35 +35 очень
душно
1008.1 993.2 15
18 16.06 штиль 0 10 км {дождь} 10/5 600 м
[Cu Sc Ac As Cs]
+25.2 +24.3 95 +35 +35 очень
душно
1007.1 992.1 17
21 16.06 штиль 0 10 км 10/5 600 м
[Sc Ac As Cs]
+25.3 +24.4 95 +35 +35 очень
душно
1006.7 991.8
00 17.06 штиль 0 10 км 10/6 300 м
[Cu Sc Ac As Cs]
+25.5 +24.6 95 +36 +36 очень
душно
1008.3 993.4 +24.5
03 17.06 штиль 0 10 км 9/4 600 м
[Sc Ac und Cs]
+30.0 +25.8 78 +45 +52 опасность
перегрева
1008.4 993.7
06 17.06 штиль 0 15 км 8/3 600 м
[Cu med, cong Ac und Cs]
+31.8 +25.9 71 +47 +60 опасность
перегрева
1006.6 992.0
09 17.06 штиль 0 10 км {дождь} 8/3 600 м
[Cu med, cong Ac lent Cs]
+32.2 +26.4 72 +49 +54 опасность
перегрева
1004.7 990.2 11
12 17.06 штиль 0 10 км {дождь} 9/3 600 м
[Cu med, cong Ac und Cs]
+30.0 +25.0 75 +43 +43 опасность
перегрева
1006.2 991.5 +33.0 11
15 17.06 штиль 0 10 км 10/6 600 м
[Cu Sc Ac As Cs]
+26.2 +24.5 90 +37 +37 очень
душно
1009.3 994.4
18 17.06 штиль 0 10 км 10/5 600 м
[Sc Ac As Cs]
+25.8 +24.3 91 +36 +36 очень
душно
1008.9 994.0
21 17.06 штиль 0 10 км {дождь} 10/6 600 м
[Sc Ac As Cs]
+25.5 +24.8 96 +36 +36 очень
душно
1007.7 992.8 1
00 18.06 штиль 0 10 км {дождь} 10/4 600 м
[Sc Ac und Cs]
+25.3 +24.4 95 +35 +36 очень
душно
1008.3 993.4 +24.6 12
03 18.06 Ю 2 10 км 9/3 600 м
[Sc diur, vesp Ac As Cs]
+29.2 +24.3 75 +41 +47 опасность
перегрева
1008.4 993.7
06 18.06 штиль 0 10 км 9/8 600 м
[Sc Ac lent Cs]
+32.0 +25.7 69 +47 +51 опасность
перегрева
1006.6 992.0
09 18.06 штиль 0 10 км 9/4 600 м
[Sc diur, vesp Ac lent Cs]
+33.3 +25.1 62 +47 +51 опасность
перегрева
1004.6 990.1
12 18.06 штиль 0 10 км 10/8 600 м
[Sc Ac As]
+28.6 +24.9 80 +41 +41 опасность
перегрева
1005.6 990.8 +33.8
15 18.06 Ю 2 7000 м слаб. дождь 10/8 600 м
[Sc Ac As]
+26.0 +24.3 90 +36 +36 очень
душно
1008.7 993.8 0.2
18 18.06 штиль 0 8000 м слаб. дождь 10/0
[Ac As]
+25.2 +24.5 96 +35 +35 очень
душно
1007.8 992.9 2
21 18.06 штиль 0 10 км {дождь} 9/0
[Ac lent Cs]
+25.0 +24.3 96 +35 +35 очень
душно
1007.6 992.7 0.0
00 19.06 штиль 0 10 км {дождь} 10/0
[Ac und]
+25.5 +24.8 96 +36 +37 очень
душно
1008.8 993.9 +24.5 3
03 19.06 штиль 0 10 км 9/8 600 м
[Sc diur, vesp Cs]
+30.2 +25.2 75 +44 +48 опасность
перегрева
1008.8 994.1
06 19.06 штиль 0 12 км 8/5 600 м
[Sc diur, vesp Cs]
+33.0 +24.9 63 +47 +59 опасность
перегрева
1006.9 992.4
09 19.06 штиль 0 10 км 8/5 600 м
[Sc diur, vesp Cs]
+34.5 +24.8 57 +48 +52 опасность
перегрева
1004.7 990.3
12 19.06 штиль 0 10 км 9/0
[Cs]
+30.5 +26.0 77 +46 +46 опасность
перегрева
1005.2 990.6 +35.2
15 19.06 штиль 0 10 км 10/0
[Ac As]
+28.7 +26.0 85 +43 +43 опасность
перегрева
1006.9 992.2
18 19.06 штиль 0 10 км 8/0
[Cs]
+27.8 +26.1 90 +42 +42 опасность
перегрева
1006.8 992.1
21 19.06 штиль 0 10 км 9/0
[Cs]
+27.0 +25.6 92 +40 +40 очень
душно
1007.1 992.2
00 20.06 штиль 0 10 км 9/0
[Ac lent Cs]
+27.3 +25.9 92 +41 +42 опасность
перегрева
1008.2 993.4 +25.7
03 20.06 З 2 10 км 9/3 600 м
[Cu hum Cs]
+32.5 +26.2 69 +48 +57 опасность
перегрева
1008.4 993.8
06 20.06 ЮЗ 2 12 км 9/8 600 м
[Sc Cs]
+33.7 +25.4 62 +48 +52 опасность
перегрева
1006.4 991.9
09 20.06 штиль 0 10 км 9/3 600 м
[Cu hum Ac lent Cs]
+34.9 +25.2 57 +49 +53 опасность
перегрева
1004.7 990.3
12 20.06 штиль 0 10 км 9/0
[Ac lent Cs]
+30.7 +25.9 76 +46 +46 опасность
перегрева
1005.2 990.6 +35.8
15 20.06 штиль 0 10 км 9/0
[Ac lent Cs]
+29.0 +25.9 83 +43 +43 опасность
перегрева
1006.7 992.0
18 20.06 штиль 0 10 км 9/0
[Ac As Cs]
+27.5 +26.4 94 +42 +42 опасность
перегрева
1005.8 991.0
21 20.06 штиль 0 10 км 8/0
[Cs]
+27.2 +25.8 92 +40 +40 очень
душно
1006.1 991.3

 

Местоположение метеостанции Сарабури (Таиланд): широта 14.52 долгота 100.92 высота над уровнем моря 91 м.

В архиве по умолчанию представлена погода в Сарабури за последнюю неделю. Архивные данные за месяц целиком и за предыдущие месяцы, начиная с января 2011 года, Вы можете получить, выбрав интересующий диапазон дат из раскрывающегося списка и нажав кнопку "Ввод!".


*Определитесь, кто Вы:
робот инопланетянин человек

Внимание! Время в таблицах - всемирное. Для получения местного времени необходимо прибавить поправку, которая равна 7 ч.

Смотрите также архив погоды в соседних городах и на ближайших метеорологических станциях:

Погода в Аюттхая (Таиланд) (22 км)
Погода в Пакчонг Агромете (Таиланд) (45 км)
Погода в Лопбури (Таиланд) (46 км)
Погода в Патхумтхани (Таиланд) (57 км)
Погода в Лаем-Чабанге (Таиланд) (62 км)
Погода в Прачинбури (Таиланд) (71 км)
Погода в Дон Муанг (Таиланд) (75 км)
Погода в Суфанбури (Таиланд) (85 км)
Погода в Буа Чум (Таиланд) (88 км)
Погода в Аэропорту Суварнабхуми (Таиланд) (95 км)

Пояснения к столбцам:

Ветер - указаны скорость ветра в м/с - средняя за 10 мин, порывы в срок и между сроками (в фигурных скобках) и направление, откуда дует ветер: С - северный, СВ - северо-восточный, В - восточный, ЮВ - юго-восточный, Ю - южный, ЮЗ - юго-западный, З - западный, СЗ - северо-западный.
Видимость - горизонтальная дальность видимости в метрах или километрах. При видимости от 1 до 10 км при отсутствии осадков обычно наблюдается дымка, при ухудшении видимости до 1 км и менее - туман. В сухую погоду видимость может ухудшаться дымом, пылью или мглою.
Явления - указаны атмосферные явления, наблюдавшиеся в срок или в последний час перед сроком; фигурными скобками обозначены явления, наблюдавшиеся между сроками (за 1-3 часа до срока); квадратными скобками обозначены град или гололедные отложения с указанием их диаметра в мм.
Облачность - указаны через наклонную черту общая и нижняя облачность в баллах и высота нижней границы облаков в метрах; квадратными скобками обозначены формы облаков: Ci - перистые, Cs - перисто-слоистые, Cc - перисто-кучевые, Ac - высококучевые, As - высокослоистые, Sc - слоисто-кучевые, Ns - слоисто-дождевые, Cu - кучевые, Cb - кучево-дождевые. Подробнее классификацию облаков см. в Атласе облаков (PDF).
T - Температура воздуха - температура, измеренная на высоте 2 м над землей.
Td - Температура точки росы - температура, при понижении до которой содержащийся в воздухе водяной пар достигнет насыщения.
f - Относительная влажность воздуха - влажноcть воздуха, измеренная на высоте 2 м над землей.
Te - Эффективная температура - температура, которую ощущает одетый по сезону человек в тени. Характеристика душности погоды. При расчете учитывается влияние влажности воздуха и скорости ветра на теплоощущения человека.
Tes - Эффективная температура на солнце - температура, которую ощущает человек, с поправкой на солнечный нагрев. Характеристика знойности погоды. Зависит от высоты солнца над горизонтом, облачности и скорости ветра. Ночью, в пасмурную погоду, а также при ветре 12 м/с и более поправка равна нулю.
P - Атмосферное давление - приведенное к уровню моря атмосферное давление.
Po - Атмосферное давление - измеренное на уровне метеостанции атмосферное давление.
Tmin - Минимальная температура - минимум температуры воздуха на высоте 2 м над землей.
Tmax - Максимальная температура - максимум температуры воздуха на высоте 2 м над землей.
R - Количество осадков - Количество выпавших осадков за период времени, мм. При наведении курсора мыши на число - период времени, за который выпало указанное количество осадков.
R24 - Количество осадков - Количество выпавших осадков за 24 часа, мм.
S - Снежный покров - Высота снежного покрова, см. При наведении курсора мыши на число - состояние снежного покрова и степень покрытия местности в баллах.